Year,Month,Day,Hour,Minute,Value (Times are PST for temperature in C)
2012,09,12,00,00,7.00
2012,09,12,00,01,7.00
2012,09,12,00,02,7.00
2012,09,12,00,03,6.90
2012,09,12,00,04,6.90
2012,09,12,00,05,6.90
2012,09,12,00,06,6.80
2012,09,12,00,07,6.80
2012,09,12,00,08,6.80
2012,09,12,00,09,6.80
2012,09,12,00,10,6.80
2012,09,12,00,11,6.80
2012,09,12,00,12,6.80
2012,09,12,00,13,6.80
2012,09,12,00,14,6.80
2012,09,12,00,15,6.70
2012,09,12,00,16,6.70
2012,09,12,00,17,6.70
2012,09,12,00,18,6.70
2012,09,12,00,19,6.70
2012,09,12,00,20,6.70
2012,09,12,00,21,6.70
2012,09,12,00,22,6.60
2012,09,12,00,23,6.60
2012,09,12,00,24,6.60
2012,09,12,00,25,6.60
2012,09,12,00,26,6.60
2012,09,12,00,27,6.60
2012,09,12,00,28,6.60
2012,09,12,00,29,6.60
2012,09,12,00,30,6.60
2012,09,12,00,31,6.60
2012,09,12,00,32,6.60
2012,09,12,00,33,6.50
2012,09,12,00,34,6.40
2012,09,12,00,35,6.40
2012,09,12,00,36,6.40
2012,09,12,00,37,6.40
2012,09,12,00,38,6.40
2012,09,12,00,39,6.40
2012,09,12,00,40,6.40
2012,09,12,00,41,6.40
2012,09,12,00,42,6.40
2012,09,12,00,43,6.40
2012,09,12,00,44,6.30
2012,09,12,00,45,6.30
2012,09,12,00,46,6.40
2012,09,12,00,47,6.30
2012,09,12,00,48,6.30
2012,09,12,00,49,6.30
2012,09,12,00,50,6.30
2012,09,12,00,51,6.30
2012,09,12,00,52,6.30
2012,09,12,00,53,6.30
2012,09,12,00,54,6.30
2012,09,12,00,55,6.30
2012,09,12,00,56,6.30
2012,09,12,00,57,6.30
2012,09,12,00,58,6.30
2012,09,12,00,59,6.40
2012,09,12,01,00,6.40
2012,09,12,01,01,6.40
2012,09,12,01,02,6.40
2012,09,12,01,03,6.40
2012,09,12,01,04,6.40
2012,09,12,01,05,6.40
2012,09,12,01,06,6.40
2012,09,12,01,07,6.30
2012,09,12,01,08,6.30
2012,09,12,01,09,6.30
2012,09,12,01,10,6.30
2012,09,12,01,11,6.30
2012,09,12,01,12,6.30
2012,09,12,01,13,6.30
2012,09,12,01,14,6.20
2012,09,12,01,15,6.20
2012,09,12,01,16,6.20
2012,09,12,01,17,6.20
2012,09,12,01,18,6.20
2012,09,12,01,19,6.20
2012,09,12,01,20,6.20
2012,09,12,01,21,6.20
2012,09,12,01,22,6.20
2012,09,12,01,23,6.20
2012,09,12,01,24,6.10
2012,09,12,01,25,6.10
2012,09,12,01,26,6.10
2012,09,12,01,27,6.10
2012,09,12,01,28,6.10
2012,09,12,01,29,6.00
2012,09,12,01,30,6.00
2012,09,12,01,31,6.00
2012,09,12,01,32,6.00
2012,09,12,01,33,6.00
2012,09,12,01,34,5.90
2012,09,12,01,35,5.90
2012,09,12,01,36,5.90
2012,09,12,01,37,5.90
2012,09,12,01,38,5.90
2012,09,12,01,39,5.90
2012,09,12,01,40,5.90
2012,09,12,01,41,5.90
2012,09,12,01,42,5.90
2012,09,12,01,43,6.00
2012,09,12,01,44,6.00
2012,09,12,01,45,6.00
2012,09,12,01,46,6.00
2012,09,12,01,47,6.00
2012,09,12,01,48,5.90
2012,09,12,01,49,5.90
2012,09,12,01,50,5.90
2012,09,12,01,51,5.90
2012,09,12,01,52,5.90
2012,09,12,01,53,5.90
2012,09,12,01,54,5.80
2012,09,12,01,55,5.80
2012,09,12,01,56,5.80
2012,09,12,01,57,5.80
2012,09,12,01,58,5.80
2012,09,12,01,59,5.80
2012,09,12,02,00,5.70
2012,09,12,02,01,5.70
2012,09,12,02,02,5.70
2012,09,12,02,03,5.70
2012,09,12,02,04,5.70
2012,09,12,02,05,5.70
2012,09,12,02,06,5.60
2012,09,12,02,07,5.60
2012,09,12,02,08,5.60
2012,09,12,02,09,5.50
2012,09,12,02,10,5.50
2012,09,12,02,11,5.50
2012,09,12,02,12,5.50
2012,09,12,02,13,5.40
2012,09,12,02,14,5.40
2012,09,12,02,15,5.40
2012,09,12,02,16,5.40
2012,09,12,02,17,5.40
2012,09,12,02,18,5.50
2012,09,12,02,19,5.50
2012,09,12,02,20,5.50
2012,09,12,02,21,5.50
2012,09,12,02,22,5.50
2012,09,12,02,23,5.50
2012,09,12,02,24,5.50
2012,09,12,02,25,5.50
2012,09,12,02,26,5.50
2012,09,12,02,27,5.50
2012,09,12,02,28,5.50
2012,09,12,02,29,5.50
2012,09,12,02,30,5.50
2012,09,12,02,31,5.50
2012,09,12,02,32,5.50
2012,09,12,02,33,5.50
2012,09,12,02,34,5.50
2012,09,12,02,35,5.50
2012,09,12,02,36,5.50
2012,09,12,02,37,5.50
2012,09,12,02,38,5.50
2012,09,12,02,39,5.50
2012,09,12,02,40,5.40
2012,09,12,02,41,5.40
2012,09,12,02,42,5.40
2012,09,12,02,43,5.40
2012,09,12,02,44,5.40
2012,09,12,02,45,5.40
2012,09,12,02,46,5.30
2012,09,12,02,47,5.30
2012,09,12,02,48,5.30
2012,09,12,02,49,5.30
2012,09,12,02,50,5.30
2012,09,12,02,51,5.30
2012,09,12,02,52,5.30
2012,09,12,02,53,5.30
2012,09,12,02,54,5.20
2012,09,12,02,55,5.20
2012,09,12,02,56,5.20
2012,09,12,02,57,5.20
2012,09,12,02,58,5.20
2012,09,12,02,59,5.20
2012,09,12,03,00,5.20
2012,09,12,03,01,5.20
2012,09,12,03,02,5.20
2012,09,12,03,03,5.10
2012,09,12,03,04,5.10
2012,09,12,03,05,5.10
2012,09,12,03,06,5.10
2012,09,12,03,07,5.10
2012,09,12,03,08,5.10
2012,09,12,03,09,5.10
2012,09,12,03,10,5.10
2012,09,12,03,11,5.10
2012,09,12,03,12,5.10
2012,09,12,03,13,5.10
2012,09,12,03,14,5.10
2012,09,12,03,15,5.10
2012,09,12,03,16,5.10
2012,09,12,03,17,5.10
2012,09,12,03,18,5.10
2012,09,12,03,19,5.10
2012,09,12,03,20,5.10
2012,09,12,03,21,5.10
2012,09,12,03,22,5.10
2012,09,12,03,23,5.20
2012,09,12,03,24,5.20
2012,09,12,03,25,5.20
2012,09,12,03,26,5.20
2012,09,12,03,27,5.20
2012,09,12,03,28,5.30
2012,09,12,03,29,5.30
2012,09,12,03,30,5.30
2012,09,12,03,31,5.30
2012,09,12,03,32,5.30
2012,09,12,03,33,5.30
2012,09,12,03,34,5.30
2012,09,12,03,35,5.30
2012,09,12,03,36,5.40
2012,09,12,03,37,5.40
2012,09,12,03,38,5.40
2012,09,12,03,39,5.40
2012,09,12,03,40,5.40
2012,09,12,03,41,5.40
2012,09,12,03,42,5.40
2012,09,12,03,43,5.40
2012,09,12,03,44,5.30
2012,09,12,03,45,5.30
2012,09,12,03,46,5.30
2012,09,12,03,47,5.30
2012,09,12,03,48,5.30
2012,09,12,03,49,5.30
2012,09,12,03,50,5.30
2012,09,12,03,51,5.30
2012,09,12,03,52,5.30
2012,09,12,03,53,5.30
2012,09,12,03,54,5.30
2012,09,12,03,55,5.20
2012,09,12,03,56,5.20
2012,09,12,03,57,5.20
2012,09,12,03,58,5.20
2012,09,12,03,59,5.10
2012,09,12,04,00,5.10
2012,09,12,04,01,5.10
2012,09,12,04,02,5.10
2012,09,12,04,03,5.10
2012,09,12,04,04,5.10
2012,09,12,04,05,5.10
2012,09,12,04,06,5.10
2012,09,12,04,07,5.10
2012,09,12,04,08,5.10
2012,09,12,04,09,5.00
2012,09,12,04,10,4.90
2012,09,12,04,11,4.90
2012,09,12,04,12,4.90
2012,09,12,04,13,4.90
2012,09,12,04,14,4.90
2012,09,12,04,15,4.90
2012,09,12,04,16,4.90
2012,09,12,04,17,4.90
2012,09,12,04,18,4.90
2012,09,12,04,19,4.90
2012,09,12,04,20,5.00
2012,09,12,04,21,5.10
2012,09,12,04,22,5.10
2012,09,12,04,23,5.10
2012,09,12,04,24,5.10
2012,09,12,04,25,5.20
2012,09,12,04,26,5.20
2012,09,12,04,27,5.20
2012,09,12,04,28,5.30
2012,09,12,04,29,5.30
2012,09,12,04,30,5.30
2012,09,12,04,31,5.30
2012,09,12,04,32,5.40
2012,09,12,04,33,5.40
2012,09,12,04,34,5.50
2012,09,12,04,35,5.50
2012,09,12,04,36,5.50
2012,09,12,04,37,5.60
2012,09,12,04,38,5.60
2012,09,12,04,39,5.60
2012,09,12,04,40,5.70
2012,09,12,04,41,5.70
2012,09,12,04,42,5.70
2012,09,12,04,43,5.70
2012,09,12,04,44,5.70
2012,09,12,04,45,5.70
2012,09,12,04,46,5.70
2012,09,12,04,47,5.70
2012,09,12,04,48,5.70
2012,09,12,04,49,5.70
2012,09,12,04,50,5.70
2012,09,12,04,51,5.70
2012,09,12,04,52,5.70
2012,09,12,04,53,5.70
2012,09,12,04,54,5.70
2012,09,12,04,55,5.70
2012,09,12,04,56,5.70
2012,09,12,04,57,5.70
2012,09,12,04,58,5.80
2012,09,12,04,59,5.80
2012,09,12,05,00,5.80
2012,09,12,05,01,5.90
2012,09,12,05,02,5.90
2012,09,12,05,03,6.00
2012,09,12,05,04,6.00
2012,09,12,05,05,6.10
2012,09,12,05,06,6.10
2012,09,12,05,07,6.10
2012,09,12,05,08,6.20
2012,09,12,05,09,6.20
2012,09,12,05,10,6.20
2012,09,12,05,11,6.20
2012,09,12,05,12,6.20
2012,09,12,05,13,6.30
2012,09,12,05,14,6.30
2012,09,12,05,15,6.40
2012,09,12,05,16,6.40
2012,09,12,05,17,6.40
2012,09,12,05,18,6.60
2012,09,12,05,19,6.60
2012,09,12,05,20,6.60
2012,09,12,05,21,6.60
2012,09,12,05,22,6.60
2012,09,12,05,23,6.60
2012,09,12,05,24,6.60
2012,09,12,05,25,6.60
2012,09,12,05,26,6.60
2012,09,12,05,27,6.70
2012,09,12,05,28,6.70
2012,09,12,05,29,6.70
2012,09,12,05,30,6.80
2012,09,12,05,31,6.80
2012,09,12,05,32,6.80
2012,09,12,05,33,6.80
2012,09,12,05,34,6.80
2012,09,12,05,35,6.80
2012,09,12,05,36,6.80
2012,09,12,05,37,6.80
2012,09,12,05,38,6.80
2012,09,12,05,39,6.70
2012,09,12,05,40,6.70
2012,09,12,05,41,6.70
2012,09,12,05,42,6.60
2012,09,12,05,43,6.70
2012,09,12,05,44,6.70
2012,09,12,05,45,6.70
2012,09,12,05,46,6.70
2012,09,12,05,47,6.70
2012,09,12,05,48,6.70
2012,09,12,05,49,6.70
2012,09,12,05,50,6.70
2012,09,12,05,51,6.70
2012,09,12,05,52,6.70
2012,09,12,05,53,6.60
2012,09,12,05,54,6.60
2012,09,12,05,55,6.60
2012,09,12,05,56,6.60
2012,09,12,05,57,6.60
2012,09,12,05,58,6.60
2012,09,12,05,59,6.70
2012,09,12,06,00,6.70
2012,09,12,06,01,6.70
2012,09,12,06,02,6.70
2012,09,12,06,03,6.80
2012,09,12,06,04,6.80
2012,09,12,06,05,6.80
2012,09,12,06,06,6.80
2012,09,12,06,07,6.80
2012,09,12,06,08,6.90
2012,09,12,06,09,6.90
2012,09,12,06,10,7.00
2012,09,12,06,11,7.00
2012,09,12,06,12,7.10
2012,09,12,06,13,7.20
2012,09,12,06,14,7.20
2012,09,12,06,15,7.30
2012,09,12,06,16,7.30
2012,09,12,06,17,7.30
2012,09,12,06,18,7.30
2012,09,12,06,19,7.30
2012,09,12,06,20,7.30
2012,09,12,06,21,7.30
2012,09,12,06,22,7.30
2012,09,12,06,23,7.30
2012,09,12,06,24,7.30
2012,09,12,06,25,7.30
2012,09,12,06,26,7.40
2012,09,12,06,27,7.40
2012,09,12,06,28,7.40
2012,09,12,06,29,7.40
2012,09,12,06,30,7.50
2012,09,12,06,31,7.50
2012,09,12,06,32,7.60
2012,09,12,06,33,7.60
2012,09,12,06,34,7.70
2012,09,12,06,35,7.80
2012,09,12,06,36,7.80
2012,09,12,06,37,7.80
2012,09,12,06,38,7.80
2012,09,12,06,39,7.80
2012,09,12,06,40,7.80
2012,09,12,06,41,7.80
2012,09,12,06,42,7.70
2012,09,12,06,43,7.70
2012,09,12,06,44,7.60
2012,09,12,06,45,7.50
2012,09,12,06,46,7.50
2012,09,12,06,47,7.40
2012,09,12,06,48,7.30
2012,09,12,06,49,7.30
2012,09,12,06,50,7.30
2012,09,12,06,51,7.20
2012,09,12,06,52,7.20
2012,09,12,06,53,7.10
2012,09,12,06,54,7.10
2012,09,12,06,55,7.10
2012,09,12,06,56,7.00
2012,09,12,06,57,7.00
2012,09,12,06,58,7.00
2012,09,12,06,59,7.00
2012,09,12,07,00,7.00
2012,09,12,07,01,7.00
2012,09,12,07,02,7.00
2012,09,12,07,03,7.00
2012,09,12,07,04,7.00
2012,09,12,07,05,7.00
2012,09,12,07,06,7.00
2012,09,12,07,07,7.00
2012,09,12,07,08,7.10
2012,09,12,07,09,7.10
2012,09,12,07,10,7.10
2012,09,12,07,11,7.10
2012,09,12,07,12,7.00
2012,09,12,07,13,7.00
2012,09,12,07,14,6.90
2012,09,12,07,15,6.80
2012,09,12,07,16,6.80
2012,09,12,07,17,6.80
2012,09,12,07,18,6.80
2012,09,12,07,19,6.80
2012,09,12,07,20,6.70
2012,09,12,07,21,6.70
2012,09,12,07,22,6.70
2012,09,12,07,23,6.70
2012,09,12,07,24,6.70
2012,09,12,07,25,6.70
2012,09,12,07,26,6.70
2012,09,12,07,27,6.70
2012,09,12,07,28,6.70
2012,09,12,07,29,6.80
2012,09,12,07,30,6.80
2012,09,12,07,31,6.80
2012,09,12,07,32,6.80
2012,09,12,07,33,6.80
2012,09,12,07,34,6.90
2012,09,12,07,35,6.90
2012,09,12,07,36,7.00
2012,09,12,07,37,7.00
2012,09,12,07,38,7.00
2012,09,12,07,39,7.10
2012,09,12,07,40,7.10
2012,09,12,07,41,7.10
2012,09,12,07,42,7.10
2012,09,12,07,43,7.10
2012,09,12,07,44,7.20
2012,09,12,07,45,7.20
2012,09,12,07,46,7.20
2012,09,12,07,47,7.20
2012,09,12,07,48,7.30
2012,09,12,07,49,7.30
2012,09,12,07,50,7.30
2012,09,12,07,51,7.30
2012,09,12,07,52,7.40
2012,09,12,07,53,7.40
2012,09,12,07,54,7.50
2012,09,12,07,55,7.50
2012,09,12,07,56,7.60
2012,09,12,07,57,7.60
2012,09,12,07,58,7.60
2012,09,12,07,59,7.70
2012,09,12,08,00,7.70
2012,09,12,08,01,7.80
2012,09,12,08,02,7.80
2012,09,12,08,03,7.80
2012,09,12,08,04,7.90
2012,09,12,08,05,8.00
2012,09,12,08,06,8.00
2012,09,12,08,07,8.10
2012,09,12,08,08,8.20
2012,09,12,08,09,8.30
2012,09,12,08,10,8.40
2012,09,12,08,11,8.50
2012,09,12,08,12,8.60
2012,09,12,08,13,8.70
2012,09,12,08,14,8.70
2012,09,12,08,15,8.70
2012,09,12,08,16,8.80
2012,09,12,08,17,8.90
2012,09,12,08,18,9.00
2012,09,12,08,19,9.10
2012,09,12,08,20,9.20
2012,09,12,08,21,9.30
2012,09,12,08,22,9.50
2012,09,12,08,23,9.60
2012,09,12,08,24,9.70
2012,09,12,08,25,9.80
2012,09,12,08,26,9.90
2012,09,12,08,27,10.00
2012,09,12,08,28,10.10
2012,09,12,08,29,10.20
2012,09,12,08,30,10.30
2012,09,12,08,31,10.40
2012,09,12,08,32,10.50
2012,09,12,08,33,10.60
2012,09,12,08,34,10.70
2012,09,12,08,35,10.80
2012,09,12,08,36,11.00
2012,09,12,08,37,11.10
2012,09,12,08,38,11.30
2012,09,12,08,39,11.40
2012,09,12,08,40,11.50
2012,09,12,08,41,11.60
2012,09,12,08,42,11.70
2012,09,12,08,43,11.80
2012,09,12,08,44,11.90
2012,09,12,08,45,12.00
2012,09,12,08,46,12.10
2012,09,12,08,47,12.10
2012,09,12,08,48,12.20
2012,09,12,08,49,12.30
2012,09,12,08,50,12.40
2012,09,12,08,51,12.50
2012,09,12,08,52,12.50
2012,09,12,08,53,12.60
2012,09,12,08,54,12.70
2012,09,12,08,55,12.80
2012,09,12,08,56,12.80
2012,09,12,08,57,12.80
2012,09,12,08,58,12.90
2012,09,12,08,59,12.90
2012,09,12,09,00,13.00
2012,09,12,09,01,13.00
2012,09,12,09,02,13.00
2012,09,12,09,03,13.00
2012,09,12,09,04,13.10
2012,09,12,09,05,13.10
2012,09,12,09,06,13.20
2012,09,12,09,07,13.20
2012,09,12,09,08,13.30
2012,09,12,09,09,13.30
2012,09,12,09,10,13.30
2012,09,12,09,11,13.30
2012,09,12,09,12,13.30
2012,09,12,09,13,13.30
2012,09,12,09,14,13.30
2012,09,12,09,15,13.30
2012,09,12,09,16,13.30
2012,09,12,09,17,13.40
2012,09,12,09,18,13.40
2012,09,12,09,19,13.50
2012,09,12,09,20,13.50
2012,09,12,09,21,13.50
2012,09,12,09,22,13.50
2012,09,12,09,23,13.50
2012,09,12,09,24,13.50
2012,09,12,09,25,13.60
2012,09,12,09,26,13.60
2012,09,12,09,27,13.60
2012,09,12,09,28,13.70
2012,09,12,09,29,13.70
2012,09,12,09,30,13.70
2012,09,12,09,31,13.70
2012,09,12,09,32,13.80
2012,09,12,09,33,13.80
2012,09,12,09,34,13.90
2012,09,12,09,35,13.90
2012,09,12,09,36,13.90
2012,09,12,09,37,14.00
2012,09,12,09,38,14.10
2012,09,12,09,39,14.20
2012,09,12,09,40,14.20
2012,09,12,09,41,14.30
2012,09,12,09,42,14.30
2012,09,12,09,43,14.30
2012,09,12,09,44,14.40
2012,09,12,09,45,14.40
2012,09,12,09,46,14.50
2012,09,12,09,47,14.50
2012,09,12,09,48,14.60
2012,09,12,09,49,14.60
2012,09,12,09,50,14.60
2012,09,12,09,51,14.70
2012,09,12,09,52,14.70
2012,09,12,09,53,14.70
2012,09,12,09,54,14.70
2012,09,12,09,55,14.80
2012,09,12,09,56,14.80
2012,09,12,09,57,14.80
2012,09,12,09,58,14.80
2012,09,12,09,59,14.80
2012,09,12,10,00,14.80
2012,09,12,10,01,14.90
2012,09,12,10,02,14.90
2012,09,12,10,03,15.00
2012,09,12,10,04,15.10
2012,09,12,10,05,15.10
2012,09,12,10,06,15.10
2012,09,12,10,07,15.20
2012,09,12,10,08,15.20
2012,09,12,10,09,15.30
2012,09,12,10,10,15.30
2012,09,12,10,11,15.30
2012,09,12,10,12,15.40
2012,09,12,10,13,15.40
2012,09,12,10,14,15.40
2012,09,12,10,15,15.40
2012,09,12,10,16,15.30
2012,09,12,10,17,15.30
2012,09,12,10,18,15.30
2012,09,12,10,19,15.30
2012,09,12,10,20,15.30
2012,09,12,10,21,15.30
2012,09,12,10,22,15.40
2012,09,12,10,23,15.40
2012,09,12,10,24,15.40
2012,09,12,10,25,15.40
2012,09,12,10,26,15.30
2012,09,12,10,27,15.30
2012,09,12,10,28,15.30
2012,09,12,10,29,15.30
2012,09,12,10,30,15.30
2012,09,12,10,31,15.30
2012,09,12,10,32,15.30
2012,09,12,10,33,15.40
2012,09,12,10,34,15.40
2012,09,12,10,35,15.50
2012,09,12,10,36,15.50
2012,09,12,10,37,15.60
2012,09,12,10,38,15.70
2012,09,12,10,39,15.80
2012,09,12,10,40,15.80
2012,09,12,10,41,15.80
2012,09,12,10,42,15.80
2012,09,12,10,43,15.80
2012,09,12,10,44,15.70
2012,09,12,10,45,15.60
2012,09,12,10,46,15.60
2012,09,12,10,47,15.60
2012,09,12,10,48,15.60
2012,09,12,10,49,15.60
2012,09,12,10,50,15.60
2012,09,12,10,51,15.70
2012,09,12,10,52,15.80
2012,09,12,10,53,15.70
2012,09,12,10,54,15.70
2012,09,12,10,55,15.70
2012,09,12,10,56,15.70
2012,09,12,10,57,15.70
2012,09,12,10,58,15.70
2012,09,12,10,59,15.70
2012,09,12,11,00,15.70
2012,09,12,11,01,15.60
2012,09,12,11,02,15.60
2012,09,12,11,03,15.70
2012,09,12,11,04,15.80
2012,09,12,11,05,15.90
2012,09,12,11,06,16.00
2012,09,12,11,07,16.10
2012,09,12,11,08,16.20
2012,09,12,11,09,16.10
2012,09,12,11,10,16.10
2012,09,12,11,11,16.10
2012,09,12,11,12,16.10
2012,09,12,11,13,16.20
2012,09,12,11,14,16.20
2012,09,12,11,15,16.30
2012,09,12,11,16,16.30
2012,09,12,11,17,16.40
2012,09,12,11,18,16.50
2012,09,12,11,19,16.60
2012,09,12,11,20,16.60
2012,09,12,11,21,16.60
2012,09,12,11,22,16.70
2012,09,12,11,23,16.70
2012,09,12,11,24,16.70
2012,09,12,11,25,16.70
2012,09,12,11,26,16.60
2012,09,12,11,27,16.50
2012,09,12,11,28,16.40
2012,09,12,11,29,16.40
2012,09,12,11,30,16.40
2012,09,12,11,31,16.50
2012,09,12,11,32,16.60
2012,09,12,11,33,16.70
2012,09,12,11,34,16.70
2012,09,12,11,35,16.70
2012,09,12,11,36,16.70
2012,09,12,11,37,16.70
2012,09,12,11,38,16.70
2012,09,12,11,39,16.70
2012,09,12,11,40,16.80
2012,09,12,11,41,16.90
2012,09,12,11,42,17.00
2012,09,12,11,43,17.10
2012,09,12,11,44,17.20
2012,09,12,11,45,17.20
2012,09,12,11,46,17.10
2012,09,12,11,47,17.10
2012,09,12,11,48,17.10
2012,09,12,11,49,17.00
2012,09,12,11,50,17.00
2012,09,12,11,51,17.00
2012,09,12,11,52,17.00
2012,09,12,11,53,17.10
2012,09,12,11,54,17.10
2012,09,12,11,55,17.20
2012,09,12,11,56,17.20
2012,09,12,11,57,17.20
2012,09,12,11,58,17.30
2012,09,12,11,59,17.30
2012,09,12,12,00,17.30
2012,09,12,12,01,17.30
2012,09,12,12,02,17.30
2012,09,12,12,03,17.30
2012,09,12,12,04,17.30
2012,09,12,12,05,17.30
2012,09,12,12,06,17.30
2012,09,12,12,07,17.30
2012,09,12,12,08,17.30
2012,09,12,12,09,17.30
2012,09,12,12,10,17.30
2012,09,12,12,11,17.30
2012,09,12,12,12,17.30
2012,09,12,12,13,17.30
2012,09,12,12,14,17.30
2012,09,12,12,15,17.40
2012,09,12,12,16,17.50
2012,09,12,12,17,17.60
2012,09,12,12,18,17.60
2012,09,12,12,19,17.60
2012,09,12,12,20,17.70
2012,09,12,12,21,17.70
2012,09,12,12,22,17.60
2012,09,12,12,23,17.60
2012,09,12,12,24,17.50
2012,09,12,12,25,17.60
2012,09,12,12,26,17.60
2012,09,12,12,27,17.80
2012,09,12,12,28,17.90
2012,09,12,12,29,17.90
2012,09,12,12,30,18.00
2012,09,12,12,31,18.10
2012,09,12,12,32,18.10
2012,09,12,12,33,18.00
2012,09,12,12,34,17.90
2012,09,12,12,35,17.90
2012,09,12,12,36,17.90
2012,09,12,12,37,17.90
2012,09,12,12,38,17.90
2012,09,12,12,39,17.90
2012,09,12,12,40,17.90
2012,09,12,12,41,17.80
2012,09,12,12,42,17.70
2012,09,12,12,43,17.60
2012,09,12,12,44,17.70
2012,09,12,12,45,17.70
2012,09,12,12,46,17.70
2012,09,12,12,47,17.80
2012,09,12,12,48,17.80
2012,09,12,12,49,17.70
2012,09,12,12,50,17.70
2012,09,12,12,51,17.70
2012,09,12,12,52,17.70
2012,09,12,12,53,17.70
2012,09,12,12,54,17.80
2012,09,12,12,55,17.90
2012,09,12,12,56,18.00
2012,09,12,12,57,18.20
2012,09,12,12,58,18.20
2012,09,12,12,59,18.20
2012,09,12,13,00,18.20
2012,09,12,13,01,18.20
2012,09,12,13,02,18.20
2012,09,12,13,03,18.20
2012,09,12,13,04,18.20
2012,09,12,13,05,18.20
2012,09,12,13,06,18.20
2012,09,12,13,07,18.20
2012,09,12,13,08,18.20
2012,09,12,13,09,18.20
2012,09,12,13,10,18.20
2012,09,12,13,11,18.20
2012,09,12,13,12,18.20
2012,09,12,13,13,18.20
2012,09,12,13,14,18.30
2012,09,12,13,15,18.30
2012,09,12,13,16,18.30
2012,09,12,13,17,18.30
2012,09,12,13,18,18.40
2012,09,12,13,19,18.40
2012,09,12,13,20,18.50
2012,09,12,13,21,18.60
2012,09,12,13,22,18.60
2012,09,12,13,23,18.70
2012,09,12,13,24,18.70
2012,09,12,13,25,18.80
2012,09,12,13,26,18.80
2012,09,12,13,27,18.70
2012,09,12,13,28,18.70
2012,09,12,13,29,18.80
2012,09,12,13,30,18.90
2012,09,12,13,31,18.90
2012,09,12,13,32,18.90
2012,09,12,13,33,18.90
2012,09,12,13,34,18.90
2012,09,12,13,35,18.90
2012,09,12,13,36,18.90
2012,09,12,13,37,18.80
2012,09,12,13,38,18.90
2012,09,12,13,39,18.90
2012,09,12,13,40,18.90
2012,09,12,13,41,19.00
2012,09,12,13,42,19.10
2012,09,12,13,43,19.10
2012,09,12,13,44,19.10
2012,09,12,13,45,19.10
2012,09,12,13,46,19.10
2012,09,12,13,47,19.10
2012,09,12,13,48,19.10
2012,09,12,13,49,19.10
2012,09,12,13,50,19.20
2012,09,12,13,51,19.20
2012,09,12,13,52,19.30
2012,09,12,13,53,19.30
2012,09,12,13,54,19.30
2012,09,12,13,55,19.30
2012,09,12,13,56,19.30
2012,09,12,13,57,19.20
2012,09,12,13,58,19.20
2012,09,12,13,59,19.20
2012,09,12,14,00,19.20
2012,09,12,14,01,19.30
2012,09,12,14,02,19.50
2012,09,12,14,03,19.60
2012,09,12,14,04,19.70
2012,09,12,14,05,19.60
2012,09,12,14,06,19.60
2012,09,12,14,07,19.50
2012,09,12,14,08,19.40
2012,09,12,14,09,19.30
2012,09,12,14,10,19.20
2012,09,12,14,11,19.30
2012,09,12,14,12,19.30
2012,09,12,14,13,19.30
2012,09,12,14,14,19.30
2012,09,12,14,15,19.30
2012,09,12,14,16,19.40
2012,09,12,14,17,19.40
2012,09,12,14,18,19.40
2012,09,12,14,19,19.50
2012,09,12,14,20,19.60
2012,09,12,14,21,19.60
2012,09,12,14,22,19.60
2012,09,12,14,23,19.60
2012,09,12,14,24,19.60
2012,09,12,14,25,19.70
2012,09,12,14,26,19.70
2012,09,12,14,27,19.70
2012,09,12,14,28,19.70
2012,09,12,14,29,19.80
2012,09,12,14,30,19.90
2012,09,12,14,31,19.90
2012,09,12,14,32,19.90
2012,09,12,14,33,19.90
2012,09,12,14,34,19.90
2012,09,12,14,35,19.80
2012,09,12,14,36,19.70
2012,09,12,14,37,19.60
2012,09,12,14,38,19.70
2012,09,12,14,39,19.70
2012,09,12,14,40,19.70
2012,09,12,14,41,19.80
2012,09,12,14,42,19.80
2012,09,12,14,43,19.70
2012,09,12,14,44,19.60
2012,09,12,14,45,19.60
2012,09,12,14,46,19.60
2012,09,12,14,47,19.70
2012,09,12,14,48,19.70
2012,09,12,14,49,19.70
2012,09,12,14,50,19.70
2012,09,12,14,51,19.60
2012,09,12,14,52,19.60
2012,09,12,14,53,19.60
2012,09,12,14,54,19.50
2012,09,12,14,55,19.50
2012,09,12,14,56,19.60
2012,09,12,14,57,19.70
2012,09,12,14,58,19.80
2012,09,12,14,59,19.80
2012,09,12,15,00,19.80
2012,09,12,15,01,19.70
2012,09,12,15,02,19.70
2012,09,12,15,03,19.70
2012,09,12,15,04,19.70
2012,09,12,15,05,19.70
2012,09,12,15,06,19.70
2012,09,12,15,07,19.70
2012,09,12,15,08,19.80
2012,09,12,15,09,19.90
2012,09,12,15,10,19.90
2012,09,12,15,11,19.90
2012,09,12,15,12,19.90
2012,09,12,15,13,19.90
2012,09,12,15,14,19.90
2012,09,12,15,15,19.90
2012,09,12,15,16,19.80
2012,09,12,15,17,19.70
2012,09,12,15,18,19.60
2012,09,12,15,19,19.60
2012,09,12,15,20,19.60
2012,09,12,15,21,19.60
2012,09,12,15,22,19.60
2012,09,12,15,23,19.60
2012,09,12,15,24,19.70
2012,09,12,15,25,19.70
2012,09,12,15,26,19.70
2012,09,12,15,27,19.70
2012,09,12,15,28,19.70
2012,09,12,15,29,19.80
2012,09,12,15,30,19.80
2012,09,12,15,31,19.90
2012,09,12,15,32,19.90
2012,09,12,15,33,20.10
2012,09,12,15,34,20.20
2012,09,12,15,35,20.20
2012,09,12,15,36,20.20
2012,09,12,15,37,20.20
2012,09,12,15,38,20.20
2012,09,12,15,39,20.20
2012,09,12,15,40,20.20
2012,09,12,15,41,20.20
2012,09,12,15,42,20.20
2012,09,12,15,43,20.20
2012,09,12,15,44,20.10
2012,09,12,15,45,19.90
2012,09,12,15,46,19.90
2012,09,12,15,47,19.80
2012,09,12,15,48,19.70
2012,09,12,15,49,19.60
2012,09,12,15,50,19.70
2012,09,12,15,51,19.70
2012,09,12,15,52,19.70
2012,09,12,15,53,19.70
2012,09,12,15,54,19.70
2012,09,12,15,55,19.80
2012,09,12,15,56,19.90
2012,09,12,15,57,19.90
2012,09,12,15,58,19.90
2012,09,12,15,59,19.90
2012,09,12,16,00,19.80
2012,09,12,16,01,19.80
2012,09,12,16,02,19.80
2012,09,12,16,03,19.80
2012,09,12,16,04,19.90
2012,09,12,16,05,19.90
2012,09,12,16,06,19.90
2012,09,12,16,07,19.90
2012,09,12,16,08,19.90
2012,09,12,16,09,19.90
2012,09,12,16,10,19.90
2012,09,12,16,11,19.90
2012,09,12,16,12,19.90
2012,09,12,16,13,19.90
2012,09,12,16,14,19.90
2012,09,12,16,15,19.90
2012,09,12,16,16,19.90
2012,09,12,16,17,19.90
2012,09,12,16,18,19.90
2012,09,12,16,19,19.90
2012,09,12,16,20,19.90
2012,09,12,16,21,19.80
2012,09,12,16,22,19.80
2012,09,12,16,23,19.80
2012,09,12,16,24,19.80
2012,09,12,16,25,19.80
2012,09,12,16,26,19.80
2012,09,12,16,27,19.80
2012,09,12,16,28,19.90
2012,09,12,16,29,19.90
2012,09,12,16,30,19.90
2012,09,12,16,31,19.90
2012,09,12,16,32,19.90
2012,09,12,16,33,19.90
2012,09,12,16,34,19.90
2012,09,12,16,35,19.90
2012,09,12,16,36,19.90
2012,09,12,16,37,20.10
2012,09,12,16,38,20.10
2012,09,12,16,39,20.10
2012,09,12,16,40,20.20
2012,09,12,16,41,20.20
2012,09,12,16,42,20.30
2012,09,12,16,43,20.30
2012,09,12,16,44,20.30
2012,09,12,16,45,20.30
2012,09,12,16,46,20.20
2012,09,12,16,47,20.20
2012,09,12,16,48,20.20
2012,09,12,16,49,20.20
2012,09,12,16,50,20.20
2012,09,12,16,51,20.20
2012,09,12,16,52,20.30
2012,09,12,16,53,20.30
2012,09,12,16,54,20.30
2012,09,12,16,55,20.30
2012,09,12,16,56,20.20
2012,09,12,16,57,20.20
2012,09,12,16,58,20.20
2012,09,12,16,59,20.20
2012,09,12,17,00,20.20
2012,09,12,17,01,20.20
2012,09,12,17,02,20.20
2012,09,12,17,03,20.20
2012,09,12,17,04,20.20
2012,09,12,17,05,20.20
2012,09,12,17,06,20.20
2012,09,12,17,07,20.20
2012,09,12,17,08,20.20
2012,09,12,17,09,20.20
2012,09,12,17,10,20.20
2012,09,12,17,11,20.30
2012,09,12,17,12,20.30
2012,09,12,17,13,20.40
2012,09,12,17,14,20.50
2012,09,12,17,15,20.50
2012,09,12,17,16,20.50
2012,09,12,17,17,20.60
2012,09,12,17,18,20.60
2012,09,12,17,19,20.60
2012,09,12,17,20,20.60
2012,09,12,17,21,20.50
2012,09,12,17,22,20.50
2012,09,12,17,23,20.40
2012,09,12,17,24,20.40
2012,09,12,17,25,20.40
2012,09,12,17,26,20.40
2012,09,12,17,27,20.40
2012,09,12,17,28,20.40
2012,09,12,17,29,20.30
2012,09,12,17,30,20.30
2012,09,12,17,31,20.30
2012,09,12,17,32,20.30
2012,09,12,17,33,20.30
2012,09,12,17,34,20.30
2012,09,12,17,35,20.30
2012,09,12,17,36,20.30
2012,09,12,17,37,20.30
2012,09,12,17,38,20.30
2012,09,12,17,39,20.30
2012,09,12,17,40,20.40
2012,09,12,17,41,20.40